Weather History for KTYQ - September, 2013

Change the Weather History Date:

Wednesday, September 11, 2013

  Actual Average (KEYE) Record (KEYE)
Temperature  
Mean Temperature 83 °F 69 °F  
Max Temperature 94 °F 79 °F 92 °F (2013)
Min Temperature 72 °F 59 °F 51 °F (1999)
Degree Days  
Heating Degree Days 0 1  
Month to date heating degree days 3  
Since 1 July heating degree days 6  
Cooling Degree Days 18 5  
Month to date cooling degree days 70  
Year to date cooling degree days 990  
Growing Degree Days 33 (Base 50)    
Moisture  
Dew Point 63 °F    
Average Humidity 57    
Maximum Humidity 86    
Minimum Humidity 27    
Precipitation  
Precipitation 0.00 in 0.08 in 0.14 in (2010)
Month to date precipitation 0.80  
Year to date precipitation 29.45  
Sea Level Pressure  
Sea Level Pressure 30.10 in    
Wind  
Wind Speed 6 mph (SW)    
Max Wind Speed 15 mph    
Max Gust Speed 21 mph    
Visibility 9 miles    
Events      
T = Trace of Precipitation, MM = Missing Value Source: NWS Daily Summary

Daily Weather History Graph

Daily Weather History Graph

Search for Another Location

Airport or City:

Trip Planner

Search our weather history database for the weather conditions in past years. The results will help you decide how hot, cold, wet, or windy it might be!

Date:

Astronomy

Sep. 11, 2013 Rise Set
Actual Time 7:22 AM EDT 7:59 PM EDT
Civil Twilight 6:55 AM EDT 8:27 PM EDT
Nautical Twilight 6:22 AM EDT 8:59 PM EDT
Astronomical Twilight 5:49 AM EDT 9:32 PM EDT
Moon 1:50 PM EDT (9/11) 11:55 PM EDT (9/11)
Length of Visible Light 13h 32m
Length of Day
12h 37m
Waxing Crescent, 38% of the Moon is Illuminated
Sep 11
Waxing Crescent
Sep 12
First Quarter
Sep 19
Full
Sep 26
Last Quarter
Oct 4
New

Hourly Weather History & Observations

Time (EDT) Temp. Heat Index Dew Point Humidity Pressure Visibility Wind Dir Wind Speed Gust Speed Precip Events Conditions
12:15 AM 79.2 °F - 66.2 °F 64% 30.13 in 10.0 mi SSW 3.5 mph - N/A   Clear
12:35 AM 78.3 °F - 66.2 °F 66% 30.13 in 10.0 mi SSW 4.6 mph - N/A   Clear
12:55 AM 77.2 °F - 66.2 °F 69% 30.13 in 10.0 mi SSW 5.8 mph - N/A   Clear
1:15 AM 76.3 °F - 65.8 °F 70% 30.13 in 10.0 mi SSW 3.5 mph - N/A   Clear
1:35 AM 76.5 °F - 65.3 °F 68% 30.12 in 10.0 mi SW 6.9 mph - N/A   Clear
1:55 AM 76.1 °F - 65.3 °F 69% 30.12 in 10.0 mi SSW 5.8 mph - N/A   Clear
2:15 AM 75.7 °F - 65.7 °F 71% 30.12 in 10.0 mi SSW 4.6 mph - N/A   Clear
2:35 AM 75.9 °F - 66.2 °F 72% 30.12 in 10.0 mi SW 5.8 mph - N/A   Clear
2:55 AM 76.1 °F - 66.4 °F 72% 30.11 in 10.0 mi SW 5.8 mph - N/A   Clear
3:15 AM 75.9 °F - 66.9 °F 74% 30.12 in 10.0 mi SSW 5.8 mph - N/A   Clear
3:35 AM 75.7 °F - 67.1 °F 74% 30.12 in 10.0 mi SW 5.8 mph - N/A   Clear
3:55 AM 75.9 °F - 67.1 °F 74% 30.12 in 10.0 mi SSW 8.1 mph - N/A   Clear
4:15 AM 75.7 °F - 67.3 °F 75% 30.12 in 10.0 mi SW 6.9 mph - N/A   Clear
4:35 AM 74.8 °F - 67.6 °F 78% 30.12 in 10.0 mi SW 6.9 mph - N/A   Clear
4:55 AM 74.3 °F - 67.6 °F 80% 30.12 in 7.0 mi SW 5.8 mph - N/A   Clear
5:15 AM 74.3 °F - 68.2 °F 81% 30.12 in 7.0 mi SW 5.8 mph - N/A   Clear
5:35 AM 74.3 °F - 68.2 °F 81% 30.12 in 7.0 mi SW 5.8 mph - N/A   Clear
5:55 AM 74.3 °F - 68.4 °F 82% 30.12 in 7.0 mi SW 5.8 mph - N/A   Clear
6:15 AM 73.9 °F - 68.4 °F 83% 30.12 in 7.0 mi SW 5.8 mph - N/A   Clear
6:35 AM 73.9 °F - 68.5 °F 83% 30.12 in 7.0 mi SW 5.8 mph - N/A   Clear
6:55 AM 73.8 °F - 68.5 °F 84% 30.13 in 7.0 mi SW 5.8 mph - N/A   Clear
7:15 AM 73.6 °F - 68.5 °F 84% 30.13 in 5.0 mi WSW 4.6 mph - N/A   Haze
7:35 AM 73.4 °F - 68.7 °F 85% 30.14 in 4.0 mi WSW 3.5 mph - N/A   Clear
7:55 AM 72.9 °F - 68.4 °F 86% 30.14 in 4.0 mi SW 3.5 mph - N/A   Clear
8:15 AM 73.4 °F - 69.1 °F 86% 30.14 in 4.0 mi SW 4.6 mph - N/A   Clear
8:35 AM 74.7 °F - 69.8 °F 85% 30.15 in 5.0 mi SW 4.6 mph - N/A   Haze
8:55 AM 75.9 °F - 70.0 °F 82% 30.15 in 5.0 mi WSW 5.8 mph - N/A   Haze
9:15 AM 77.4 °F - 70.0 °F 78% 30.15 in 7.0 mi WSW 6.9 mph - N/A   Clear
9:35 AM 78.8 °F - 69.8 °F 74% 30.15 in 7.0 mi WSW 6.9 mph - N/A   Clear
9:55 AM 80.1 °F 83.0 °F 69.6 °F 70% 30.15 in 10.0 mi WSW 5.8 mph - N/A   Clear
10:15 AM 81.9 °F 85.2 °F 69.3 °F 65% 30.15 in 10.0 mi WSW 6.9 mph - N/A   Clear
10:35 AM 83.3 °F 86.4 °F 68.2 °F 60% 30.15 in 10.0 mi WSW 8.1 mph - N/A   Clear
10:55 AM 84.7 °F 87.9 °F 67.8 °F 57% 30.14 in 10.0 mi SW 5.8 mph - N/A   Clear
11:15 AM 86.5 °F 88.7 °F 66.0 °F 50% 30.14 in 10.0 mi WSW 5.8 mph - N/A   Clear
11:35 AM 87.1 °F 89.5 °F 66.2 °F 50% 30.14 in 10.0 mi SW 5.8 mph - N/A   Clear
11:55 AM 89.1 °F 91.0 °F 65.3 °F 45% 30.13 in 10.0 mi WSW 8.1 mph - N/A   Clear
12:15 PM 89.8 °F 91.0 °F 63.9 °F 42% 30.13 in 10.0 mi WSW 6.9 mph - N/A   Clear
12:35 PM 90.9 °F 92.0 °F 63.3 °F 40% 30.12 in 10.0 mi WSW 6.9 mph - N/A   Clear
12:55 PM 91.9 °F 92.5 °F 62.6 °F 37% 30.12 in 10.0 mi West 5.8 mph - N/A   Clear
1:15 PM 91.9 °F 92.2 °F 61.7 °F 36% 30.11 in 10.0 mi West 9.2 mph 17.3 mph N/A   Clear
1:35 PM 92.3 °F 92.0 °F 60.4 °F 34% 30.11 in 10.0 mi West 8.1 mph - N/A   Clear
1:55 PM 92.8 °F 92.4 °F 59.5 °F 33% 30.11 in 10.0 mi West 9.2 mph - N/A   Clear
2:15 PM 93.2 °F 92.9 °F 59.7 °F 33% 30.10 in 10.0 mi West 4.6 mph 17.3 mph N/A   Clear
2:35 PM 93.7 °F 93.0 °F 58.6 °F 31% 30.09 in 10.0 mi WSW 11.5 mph 16.1 mph N/A   Clear
2:55 PM 93.7 °F 92.6 °F 57.7 °F 30% 30.09 in 10.0 mi West 12.7 mph 18.4 mph N/A   Clear
3:15 PM 94.1 °F 93.1 °F 58.1 °F 30% 30.08 in 10.0 mi SW 10.4 mph - N/A   Scattered Clouds
3:35 PM 94.1 °F 93.1 °F 58.3 °F 30% 30.07 in 10.0 mi West 15.0 mph 18.4 mph N/A   Scattered Clouds
3:55 PM 92.8 °F 91.1 °F 56.7 °F 29% 30.07 in 10.0 mi WSW 12.7 mph 18.4 mph N/A   Scattered Clouds
4:15 PM 94.1 °F 92.2 °F 54.9 °F 27% 30.06 in 10.0 mi WSW 11.5 mph 16.1 mph N/A   Scattered Clouds
4:35 PM 93.9 °F 92.0 °F 55.6 °F 27% 30.06 in 10.0 mi WSW 15.0 mph 20.7 mph N/A   Clear
4:55 PM 93.7 °F 92.0 °F 55.8 °F 28% 30.05 in 10.0 mi West 11.5 mph 18.4 mph N/A   Clear
5:15 PM 93.2 °F 91.3 °F 55.8 °F 28% 30.05 in 10.0 mi West 11.5 mph 17.3 mph N/A   Clear
5:35 PM 93.2 °F 91.3 °F 55.9 °F 28% 30.05 in 10.0 mi West 11.5 mph - N/A   Clear
5:55 PM 92.3 °F 90.5 °F 55.4 °F 29% 30.05 in 10.0 mi WSW 12.7 mph 17.3 mph N/A   Clear
6:15 PM 92.1 °F 90.2 °F 55.6 °F 29% 30.04 in 10.0 mi West 9.2 mph 17.3 mph N/A   Clear
6:35 PM 91.4 °F 89.1 °F 54.3 °F 28% 30.05 in 10.0 mi WSW 8.1 mph - N/A   Clear
6:55 PM 90.5 °F 88.3 °F 54.5 °F 29% 30.05 in 10.0 mi WSW 8.1 mph - N/A   Clear
7:15 PM 88.9 °F 87.1 °F 55.0 °F 32% 30.05 in 10.0 mi WSW 8.1 mph - N/A   Clear
7:35 PM 87.3 °F 85.7 °F 55.6 °F 34% 30.04 in 10.0 mi WSW 5.8 mph - N/A   Clear
7:55 PM 83.1 °F 83.0 °F 58.8 °F 44% 30.05 in 10.0 mi SW 4.6 mph - N/A   Clear
8:15 PM 80.8 °F 81.4 °F 59.9 °F 49% 30.05 in 10.0 mi SW 5.8 mph - N/A   Clear
8:35 PM 80.1 °F 81.0 °F 60.3 °F 51% 30.05 in 10.0 mi SW 5.8 mph - N/A   Clear
8:55 PM 78.8 °F - 60.8 °F 54% 30.05 in 10.0 mi SW 5.8 mph - N/A   Clear
9:15 PM 78.1 °F - 60.8 °F 55% 30.06 in 10.0 mi SW 4.6 mph - N/A   Clear
9:35 PM 77.7 °F - 60.8 °F 56% 30.06 in 10.0 mi SW 5.8 mph - N/A   Clear
9:55 PM 77.0 °F - 60.8 °F 57% 30.06 in 10.0 mi SW 5.8 mph - N/A   Clear
10:15 PM 76.1 °F - 60.8 °F 59% 30.06 in 10.0 mi SW 5.8 mph - N/A   Clear
10:35 PM 75.2 °F - 60.8 °F 61% 30.06 in 10.0 mi SW 5.8 mph - N/A   Clear
10:55 PM 74.8 °F - 60.8 °F 62% 30.06 in 10.0 mi SW 4.6 mph - N/A   Clear
11:15 PM 74.3 °F - 61.0 °F 63% 30.05 in 10.0 mi WSW 5.8 mph - N/A   Clear
11:35 PM 76.1 °F - 61.9 °F 61% 30.05 in 10.0 mi SW 4.6 mph - N/A   Clear
11:55 PM 77.0 °F - 62.4 °F 61% 30.04 in 10.0 mi WSW 5.8 mph - N/A   Clear